This is the latest recevied weather packets stored in our database for station/object NW5W-12. If no packets are shown the sender has not sent any weather packets the latest 1 day(s).
| Time | Temp. | Humidity | Pressure | Rain* | Wind** | Luminosity | Snow |
|---|---|---|---|---|---|---|---|
| 1778017242 | 8.33° C | 62% | 1012.7 hPa | 0.51 mm | 0 m/s | - | - |
| 1778016942 | 8.33° C | 63% | 1012.7 hPa | 0.51 mm | 0.89 m/s, 172° | - | - |
| 1778016642 | 8.33° C | 63% | 1012.6 hPa | 0.51 mm | 1.79 m/s, 172° | - | - |
| 1778016342 | 8.33° C | 63% | 1012.7 hPa | 0.51 mm | 1.34 m/s, 203° | - | - |
| 1778016042 | 8.89° C | 62% | 1012.7 hPa | 0.51 mm | 1.34 m/s, 139° | - | - |
| 1778015742 | 8.89° C | 61% | 1012.8 hPa | 0.51 mm | 2.24 m/s, 185° | - | - |
| 1778015442 | 8.89° C | 60% | 1012.8 hPa | 0.51 mm | 0.89 m/s, 179° | - | - |
| 1778015142 | 8.89° C | 58% | 1012.7 hPa | 0.51 mm | 1.34 m/s, 195° | - | - |
| 1778014842 | 8.89° C | 59% | 1012.7 hPa | 0.51 mm | 1.79 m/s, 206° | - | - |
| 1778014542 | 8.89° C | 60% | 1012.7 hPa | 0.51 mm | 1.34 m/s, 193° | - | - |
| 1778014242 | 9.44° C | 60% | 1012.7 hPa | 0.51 mm | 1.34 m/s, 170° | - | - |
| 1778013942 | 9.44° C | 59% | 1012.7 hPa | 0.51 mm | 1.34 m/s, 139° | - | - |
| 1778013642 | 10° C | 56% | 1012.7 hPa | 0.51 mm | 1.34 m/s, 157° | - | - |
| 1778013342 | 10° C | 55% | 1012.8 hPa | 0.51 mm | 0.89 m/s, 144° | - | - |
| 1778013042 | 10° C | 56% | 1012.8 hPa | 0.51 mm | 2.24 m/s, 194° | - | - |
| 1778012742 | 10.56° C | 54% | 1012.7 hPa | 0.51 mm | 1.79 m/s, 154° | - | - |
| 1778012442 | 10° C | 57% | 1012.7 hPa | 0.51 mm | 1.79 m/s, 179° | - | - |
| 1778012142 | 10° C | 56% | 1012.8 hPa | 0.51 mm | 2.24 m/s, 157° | - | - |
| 1778011842 | 9.44° C | 58% | 1012.8 hPa | 0.51 mm | 0.89 m/s, 134° | - | - |
| 1778011542 | 9.44° C | 60% | 1012.8 hPa | 0.51 mm | 2.68 m/s, 167° | - | - |
| 1778011242 | 8.89° C | 61% | 1012.8 hPa | 0.51 mm | 2.68 m/s, 161° | - | - |
| 1778010942 | 8.89° C | 63% | 1012.8 hPa | 0.51 mm | 3.13 m/s, 162° | - | - |
| 1778010642 | 8.33° C | 64% | 1012.8 hPa | 0.51 mm | 3.13 m/s, 132° | - | - |
| 1778010342 | 8.33° C | 66% | 1012.8 hPa | 0.51 mm | 1.79 m/s, 159° | - | - |
| 1778010042 | 7.78° C | 64% | 1012.8 hPa | 0.51 mm | 2.24 m/s, 154° | - | - |
* Rain since midnight (hover to see other rain measurements)
** Current wind speed in m/s (hover to see current wind gust speed)